NOAA 16 DEB, 41669

Orbit data source: Space-Track

NOAA 16 DEB, 41669 is space debris in SSO originally from a launch on Thu, 21 Sep 2000 UTC launched from the Air Force Western Test Range (AFWTR). Debris objects in space refer to the collection of defunct objects orbiting the Earth. Examples of debris include non-operational satellites, rocket bodies, and fragments generated from explosions, collisions, or faulty payload assembly.

Loading next visibility...
Identifier
41669, 2000-055PJ
Orbit
SSO
Country
Flag of USUS
Related business
Manufacturer
Unknown
Mission
Spacecraft
Bus & Motor
Unknown
Mass
Unknown
Launch date (UTC)
2000-09-21 (26 years ago)
Launch vehicle
Unknown
Launch site
Air Force Western Test Range (AFWTR)
Object type
Payload
Rocket body
Debris
Shape & HBR
Unknown shape, 0.1 m
Radar Cross Section
Small (<0.1 m²)

Expand to show TLE details & history
Last TLE update: 18 hours ago

TLE from 18 hours ago
0 NOAA 16 DEB
1 41669U 00055PJ  26126.55861764  .00011526  00000-0  24660-2 0  9990
2 41669  98.7066 242.9113 0015048 252.4453 107.5101 14.58856149523566
Epoch: 2026-05-06T13:24Z
TLE epoch observation values (Epoch: 2026-05-06T13:24:24.564Z)
Latitude
-0°
Longitude
177.39157°
Altitude
703.056 km
Speed
7.503 km/s
True Right ascension
16h 11m 38s
True Declination
0° 00' 00"
Sunlit
Object was in full shadow at epoch
Visualization orbit readout
Latitude
Unknown
Longitude
Unknown
Altitude
Unknown
Speed
Unknown
Apparent Right ascension
Unknown
Apparent Declination
Unknown
Sunlit
N/A
Visualization observer readout
Local Sidereal Time
14:55:52
Azimuth
Unknown
Elevation
Unknown
Doppler factor
Unknown
Orbital elements
Apogee altitude
704.619 km
Perigee altitude
683.334 km
Semi-major axis
7,072.114 km
Eccentricity
0.0015
Inclination
98.7066°
RAAN
242.9113°
Arg. of periapsis
252.4453°
True anomaly
107.67445°
Mean anomaly
107.5101°
Eccentric anomaly
107.59229°
Mean motion
3.64938 °/min
Orbital period
98.65 mins
BSTAR
0.002466
Loading maneuver chart data...
Computing Atmospheric mass density...
Loading historical data...
Loading historical data...
Loading historical data...
Loading historical data...
Loading historical data...
Loading historical data...
Loading historical data...

Documentation

Showing up to 5 results
|